Weather History for Paris, TX

Change the Weather History Date:

Sunday, March 10, 2013

  Actual Average Record
Temperature  
Mean Temperature 47 °F -  
Max Temperature 57 °F 60 °F 84 °F (2006)
Min Temperature 37 °F 41 °F 26 °F (2002)
Degree Days  
Heating Degree Days 18    
Moisture  
Dew Point 39 °F    
Average Humidity 70    
Maximum Humidity 94    
Minimum Humidity 51    
Precipitation  
Precipitation 0.78 in - - ()
Sea Level Pressure  
Sea Level Pressure 29.89 in    
Wind  
Wind Speed 13 mph (NW)    
Max Wind Speed 23 mph    
Max Gust Speed 34 mph    
Visibility 10 miles    
Events Thunderstorm    
Averages and records for this station are not official NWS values.
T = Trace of Precipitation, MM = Missing Value Source: NWS Daily Summary

Daily Weather History Graph

Daily Weather History Graph

Search for Another Location

Airport:

Trip Planner

Search our weather history database for the weather conditions in past years. The results will help you decide how hot, cold, wet, or windy it might be!

Date:

Astronomy

Mar. 10, 2013 Rise Set
Actual Time 7:38 AM CDT 7:25 PM CDT
Civil Twilight 7:13 AM CDT 7:50 PM CDT
Nautical Twilight 6:44 AM CDT 8:19 PM CDT
Astronomical Twilight 6:15 AM CDT 8:48 PM CDT
Moon 6:37 AM CDT (3/10) 6:35 PM CDT (3/10)
Length of Visible Light 12h 37m
Length of Day
11h 47m
Waning Crescent, 2% of the Moon is Illuminated
Mar 10
Waning Crescent
Mar 11
New
Mar 19
First Quarter
Mar 27
Full
Apr 2
Last Quarter

Hourly Weather History & Observations

Time (CDT) Temp. Windchill Dew Point Humidity Pressure Visibility Wind Dir Wind Speed Gust Speed Precip Events Conditions
12:15 AM 57.2 °F - 55.4 °F 94% 29.74 in 10.0 mi ENE 8.1 mph - N/A   Overcast
12:35 AM 57.2 °F - 55.4 °F 94% 29.75 in 10.0 mi East 4.6 mph - 0.01 in   Overcast
12:55 AM 57.2 °F - 55.4 °F 94% 29.75 in 10.0 mi East 5.8 mph - 0.02 in   Overcast
1:15 AM 57.2 °F - 55.4 °F 94% 29.77 in 10.0 mi NNW 5.8 mph - 0.02 in   Overcast
1:35 AM 57.2 °F - 55.4 °F 94% 29.75 in 10.0 mi North 11.5 mph - 0.03 in   Overcast
1:55 AM 55.4 °F - 51.8 °F 88% 29.75 in 10.0 mi NNW 21.9 mph - 0.06 in   Overcast
3:15 AM 55.4 °F - 51.8 °F 88% 29.76 in 9.0 mi NNW 15.0 mph 25.3 mph 0.23 in Thunderstorm Thunderstorm
3:35 AM 53.6 °F - 51.8 °F 94% 29.76 in 7.0 mi NNW 12.7 mph 20.7 mph 0.45 in   Overcast
3:55 AM 53.6 °F - 51.8 °F 94% 29.78 in 8.0 mi WNW 6.9 mph - 0.53 in   Overcast
4:15 AM 53.6 °F - 51.8 °F 94% 29.75 in 10.0 mi NNW 11.5 mph - 0.03 in   Overcast
4:35 AM 53.6 °F - 51.8 °F 94% 29.78 in 9.0 mi NW 9.2 mph - 0.08 in   Overcast
4:55 AM 53.6 °F - 50.0 °F 88% 29.76 in 10.0 mi NNW 9.2 mph - 0.12 in   Overcast
5:15 AM 53.6 °F - 50.0 °F 88% 29.76 in 10.0 mi NNW 8.1 mph - 0.02 in   Overcast
5:35 AM 53.6 °F - 50.0 °F 88% 29.78 in 10.0 mi NW 9.2 mph - 0.02 in   Overcast
5:55 AM 53.6 °F - 50.0 °F 88% 29.76 in 10.0 mi NNW 8.1 mph - 0.02 in   Overcast
6:15 AM 53.6 °F - 50.0 °F 88% 29.76 in 10.0 mi NW 5.8 mph - 0.01 in   Overcast
7:35 AM 51.8 °F - 48.2 °F 88% 29.76 in 10.0 mi ESE 6.9 mph - N/A   Overcast
7:55 AM 51.8 °F - 50.0 °F 94% 29.77 in 10.0 mi SE 5.8 mph - 0.01 in   Overcast
8:15 AM 51.8 °F - 48.2 °F 88% 29.78 in 10.0 mi SSE 6.9 mph - N/A   Overcast
8:35 AM 51.8 °F - 50.0 °F 94% 29.78 in 10.0 mi SE 8.1 mph - 0.01 in   Mostly Cloudy
8:55 AM 51.8 °F - 50.0 °F 94% 29.75 in 10.0 mi SE 3.5 mph - 0.01 in   Mostly Cloudy
9:15 AM 53.6 °F - 50.0 °F 88% 29.80 in 10.0 mi WSW 5.8 mph - N/A   Mostly Cloudy
9:35 AM 51.8 °F - 44.6 °F 76% 29.82 in 10.0 mi NW 23.0 mph 32.2 mph N/A   Overcast
9:55 AM 48.2 °F - 39.2 °F 71% 29.83 in 10.0 mi WNW 18.4 mph 24.2 mph N/A   Overcast
10:15 AM 48.2 °F - 39.2 °F 71% 29.85 in 10.0 mi NW 13.8 mph 19.6 mph N/A   Overcast
10:35 AM 48.2 °F - 39.2 °F 71% 29.84 in 10.0 mi NW 16.1 mph - N/A   Overcast
10:55 AM 50.0 °F - 39.2 °F 66% 29.85 in 10.0 mi WNW 13.8 mph - N/A   Scattered Clouds
11:15 AM 51.8 °F - 37.4 °F 58% 29.85 in 10.0 mi WNW 19.6 mph 23.0 mph N/A   Scattered Clouds
11:35 AM 51.8 °F - 37.4 °F 58% 29.87 in 10.0 mi WNW 20.7 mph 27.6 mph N/A   Scattered Clouds
11:55 AM 53.6 °F - 39.2 °F 58% 29.87 in 10.0 mi WNW 20.7 mph 24.2 mph N/A   Mostly Cloudy
12:15 PM 53.6 °F - 39.2 °F 58% 29.88 in 10.0 mi WNW 23.0 mph 26.5 mph N/A   Mostly Cloudy
12:35 PM 53.6 °F - 39.2 °F 58% 29.89 in 10.0 mi WNW 19.6 mph 23.0 mph N/A   Overcast
12:55 PM 53.6 °F - 37.4 °F 54% 29.89 in 10.0 mi WNW 19.6 mph 28.8 mph N/A   Overcast
1:15 PM 53.6 °F - 37.4 °F 54% 29.90 in 10.0 mi WNW 19.6 mph 26.5 mph N/A   Overcast
1:35 PM 51.8 °F - 37.4 °F 58% 29.90 in 10.0 mi West 18.4 mph 23.0 mph N/A   Overcast
1:55 PM 53.6 °F - 35.6 °F 51% 29.90 in 10.0 mi West 23.0 mph 29.9 mph N/A   Overcast
2:15 PM 51.8 °F - 37.4 °F 58% 29.90 in 10.0 mi WNW 20.7 mph 34.5 mph N/A   Overcast
2:35 PM 51.8 °F - 39.2 °F 62% 29.90 in 10.0 mi WNW 23.0 mph 26.5 mph N/A   Mostly Cloudy
2:55 PM 50.0 °F - 37.4 °F 62% 29.92 in 10.0 mi WNW 23.0 mph 26.5 mph N/A   Overcast
3:15 PM 51.8 °F - 37.4 °F 58% 29.92 in 10.0 mi WNW 23.0 mph 28.8 mph N/A   Overcast
3:35 PM 48.2 °F - 35.6 °F 62% 29.93 in 10.0 mi WNW 21.9 mph 25.3 mph N/A   Overcast
3:55 PM 48.2 °F - 35.6 °F 62% 29.93 in 10.0 mi WNW 17.3 mph 21.9 mph N/A   Overcast
4:15 PM 46.4 °F 39.2 °F 33.8 °F 62% 29.95 in 10.0 mi WNW 18.4 mph 23.0 mph N/A   Overcast
4:35 PM 46.4 °F 38.7 °F 33.8 °F 62% 29.95 in 10.0 mi NW 20.7 mph 27.6 mph N/A   Overcast
4:55 PM 46.4 °F 38.5 °F 33.8 °F 62% 29.96 in 10.0 mi NW 21.9 mph 27.6 mph N/A   Overcast
5:15 PM 46.4 °F 39.5 °F 32.0 °F 57% 29.96 in 10.0 mi NW 17.3 mph 24.2 mph N/A   Overcast
5:35 PM 46.4 °F 40.1 °F 32.0 °F 57% 29.96 in 10.0 mi NW 15.0 mph 21.9 mph N/A   Overcast
5:55 PM 46.4 °F 40.4 °F 32.0 °F 57% 29.96 in 10.0 mi NW 13.8 mph 21.9 mph N/A   Overcast
6:15 PM 46.4 °F 40.1 °F 32.0 °F 57% 29.97 in 10.0 mi NW 15.0 mph - N/A   Overcast
6:35 PM 44.6 °F 37.2 °F 32.0 °F 61% 29.97 in 10.0 mi WNW 17.3 mph 20.7 mph N/A   Overcast
6:55 PM 44.6 °F 36.9 °F 30.2 °F 57% 29.98 in 10.0 mi NW 18.4 mph 27.6 mph N/A   Overcast
7:15 PM 44.6 °F 36.9 °F 30.2 °F 57% 29.99 in 10.0 mi NW 18.4 mph 24.2 mph N/A   Overcast
7:35 PM 44.6 °F 37.4 °F 28.4 °F 53% 30.00 in 10.0 mi NW 16.1 mph 25.3 mph N/A   Overcast
7:55 PM 42.8 °F 37.0 °F 30.2 °F 61% 30.01 in 10.0 mi NW 10.4 mph - N/A   Overcast
8:15 PM 42.8 °F 37.0 °F 30.2 °F 61% 30.02 in 10.0 mi NW 10.4 mph - N/A   Overcast
8:35 PM 44.6 °F 37.4 °F 30.2 °F 57% 30.02 in 10.0 mi WNW 16.1 mph 24.2 mph N/A   Overcast
8:55 PM 42.8 °F 34.5 °F 28.4 °F 57% 30.03 in 10.0 mi WNW 18.4 mph 23.0 mph N/A   Overcast
9:15 PM 42.8 °F 35.1 °F 28.4 °F 57% 30.03 in 10.0 mi NW 16.1 mph 26.5 mph N/A   Overcast
9:35 PM 42.8 °F 34.8 °F 26.6 °F 53% 30.05 in 10.0 mi NW 17.3 mph 25.3 mph N/A   Overcast
9:55 PM 42.8 °F 35.1 °F 26.6 °F 53% 30.05 in 10.0 mi NW 16.1 mph 27.6 mph N/A   Mostly Cloudy
10:15 PM 41.0 °F 33.9 °F 26.6 °F 57% 30.06 in 10.0 mi NW 12.7 mph - N/A   Partly Cloudy
10:35 PM 41.0 °F 33.9 °F 26.6 °F 57% 30.06 in 10.0 mi NW 12.7 mph 19.6 mph N/A   Scattered Clouds
10:55 PM 39.2 °F 32.0 °F 26.6 °F 61% 30.07 in 10.0 mi NW 11.5 mph - N/A   Partly Cloudy
11:15 PM 41.0 °F 31.4 °F 26.6 °F 57% 30.06 in 10.0 mi NW 21.9 mph 27.6 mph N/A   Clear
11:35 PM 39.2 °F 32.0 °F 26.6 °F 61% 30.06 in 10.0 mi NW 11.5 mph - N/A   Clear
12:35 AM 37.4 °F 27.8 °F 24.8 °F 60% 30.04 in 10.0 mi NW 17.3 mph 23.0 mph N/A   Clear
12:55 AM 37.4 °F 28.2 °F 26.6 °F 65% 30.04 in 10.0 mi NNW 16.1 mph 21.9 mph N/A   Clear